Flag for Israel Weather past 2 weeks in Rishon LeZion, Israel

Now
75 °F

Clear.


Feels Like: 77 °F
Forecast: 73 / 95 °F
Wind: 7 mph from East

Location: Ben Gurion International Airport

Current Time: Sep 17, 2014 at 1:43:07 AM

Latest Report: Sep 17, 2014 at 1:20 AM


Visibility: 10 mi

Pressure: 29.80 "Hg

Humidity: 74%

Dew point: 66 °F

Location of Rishon LeZionLocation

Historic Weather in Rishon LeZion — Graph

°F

Rishon LeZion temperature yesterday

Maximum temperature yesterday: 88 °F (at 2:20 PM)
Minimum temperature yesterday: 73 °F (at 4:20 AM)
Average temperature yesterday: 80 °F

Past Weeks' High & Low Weather Summary

 TemperatureHumidityPressure
High90 °F (Sep 4, 11:50 AM)83% (Sep 5, 3:20 AM)29.95 "Hg (Sep 5, 3:20 AM)
Low72 °F (Sep 14, 5:20 AM)46% (Sep 2, 12:20 PM)29.71 "Hg (Sep 5, 3:20 PM)
Average81 °F64%29.85 "Hg
* Reported Sep 2 12:20 AM — Sep 17 12:20 AM, Rishon LeZion, Weather by CustomWeather, © 2014

Note: Actual official high and low records may vary slightly from our data, if they occured in-between our weather recording intervals... More about our weather records

Advertising

Rishon LeZion weather history for previous 24 hours

 ConditionsComfort  
Time TempWeatherWind HumidityBarometerVisibility
12:20 AM
Sep 17
75 °FClear.5 mph74%29.83 "Hg10 mi
11:50 PM
Sep 16
77 °FClear.6 mph74%29.83 "Hg10 mi
11:20 PM77 °FClear.5 mph74%29.83 "Hg10 mi
10:50 PM79 °FClear.5 mph70%29.86 "Hg10 mi
10:20 PM79 °FClear.5 mph70%29.86 "Hg10 mi
9:50 PM79 °FClear.6 mph70%29.86 "Hg10 mi
9:20 PM81 °FClear.5 mph66%29.86 "Hg10 mi
8:50 PM81 °FClear.3 mph66%29.86 "Hg10 mi
8:20 PM81 °FClear.5 mph66%29.86 "Hg10 mi
7:50 PM81 °FClear.6 mph66%29.86 "Hg10 mi
7:20 PM81 °FSunny.7 mph66%29.83 "Hg10 mi
6:50 PM82 °FSunny.7 mph62%29.83 "Hg10 mi
6:20 PM82 °FPassing clouds.8 mph62%29.83 "HgN/A
5:50 PM84 °FSunny.9 mph58%29.83 "Hg10 mi
5:20 PM84 °FPassing clouds.10 mph58%29.83 "HgN/A
4:50 PM84 °FPassing clouds.13 mph58%29.83 "HgN/A
4:20 PM84 °FPassing clouds.13 mph58%29.83 "HgN/A
3:50 PM86 °FPassing clouds.13 mph55%29.83 "HgN/A
3:20 PM86 °FPassing clouds.13 mph49%29.83 "HgN/A
2:50 PM88 °FPassing clouds.12 mph46%29.83 "HgN/A
2:20 PM88 °FPassing clouds.12 mph46%29.86 "HgN/A
1:50 PM86 °FPassing clouds.12 mph55%29.86 "HgN/A
1:20 PM86 °FPassing clouds.12 mph55%29.86 "HgN/A
12:50 PM86 °FPassing clouds.12 mph52%29.86 "HgN/A
12:20 PM86 °FPassing clouds.12 mph52%29.86 "HgN/A
11:50 AM86 °FPassing clouds.8 mph52%29.86 "HgN/A
11:20 AM86 °FPassing clouds.7 mph55%29.86 "HgN/A
10:50 AM84 °FPassing clouds.5 mph58%29.86 "HgN/A
10:20 AM82 °FScattered clouds.6 mph62%29.89 "HgN/A
9:50 AM81 °FScattered clouds.6 mph66%29.89 "HgN/A
9:20 AM81 °FScattered clouds.5 mph66%29.86 "HgN/A
8:50 AM81 °FPassing clouds.7 mph70%29.86 "HgN/A
8:20 AM79 °FPassing clouds.8 mph74%29.86 "HgN/A
7:50 AM77 °FPassing clouds.8 mph79%29.86 "HgN/A
7:20 AM75 °FPassing clouds.6 mph78%29.86 "HgN/A
6:50 AM75 °FPassing clouds.5 mph78%29.86 "HgN/A
6:20 AM75 °FPassing clouds.5 mph78%29.86 "HgN/A
5:50 AM75 °FPassing clouds.5 mph78%29.86 "HgN/A
5:20 AM75 °FPassing clouds.6 mph78%29.86 "HgN/A
4:50 AM75 °FPassing clouds.5 mph78%29.86 "HgN/A
4:20 AM73 °FPassing clouds.5 mph83%29.86 "HgN/A
3:50 AM75 °FPassing clouds.5 mph78%29.86 "HgN/A
3:20 AM75 °FPassing clouds.5 mph78%29.86 "HgN/A
2:50 AM75 °FPassing clouds.5 mph78%29.86 "HgN/A
2:20 AM75 °FPassing clouds.6 mph78%29.86 "HgN/A
1:50 AM77 °FPassing clouds.5 mph74%29.86 "HgN/A
1:20 AM77 °FPassing clouds.5 mph74%29.86 "HgN/A
Weather by CustomWeather, © 2014

See weather overviewHow to use our weather pages